Pagina principală
METAR-TAF:

METAR-TAF

Aeroporturi :

Pearson Field

Vancouver, Washington, Statele Unite ale Americii

Latitudine: 45-37-24N, longitudine: 122-39-23W, elevație: 7 m

Observații meteo curente

Raportul a fost făcut în urmă cu 1 oră și 14 de minute, la 08:53 UTC
Vânt 5 kt de la Est
Temperatură 23°C
Umiditate 50%
Presiune 1014 hPa
Vizibilitate: 16.1 km
Cer senin

METAR: KVUO 170853Z AUTO 09005KT 10SM CLR 23/12 A2994 RMK AO2 LTG DSNT SE SLP139 T02280122 53023

Ora: 03:07 (10:07 UTC)


TAF: lipsă

Observații și prognoze meteo pentru peste 4.000 de aeroporturi (rapoarte METAR și TAF).

Stațiile disponibile sunt reprezentate pe hartă prin puncte galbene și roșii.

Țineți indicatorul mouse-ului pe punctul dorit pentru a vedea denumirea stației.

Apoi, faceți clic pentru a vedea observațiile și prognozele meteorologice.

Pentru a schimba harta: Pentru mărire, faceți clic pe butoanele verzi cu cruce neagră; pentru micșorare, pe butonul verde cu o liniuță; pentru hărți învecinate, pe săgețile verzi.


METAR-TAF: